Regional Weather Roundup
Issued by NWS Portland, ME

Current Version | Previous Version | Text Only | Print | Product List | Glossary Off
Versions: 1 2 3 4 5 6 7 8 9 10 11 12 13 14 15 16 17 18 19 20 21 22 23 24 25 26 27 28 29 30 31 32 33 34 35 36 37 38 39 40 41 42 43 44 45 46 47 48 49 50
000 ASUS41 KGYX 151710 RWRGYX WEATHER ROUNDUP FOR MAINE AND NEW HAMPSHIRE NATIONAL WEATHER SERVICE GRAY ME 1200 PM EST THU NOV 15 2018 MEZ002-005-006-010-012-015-018-020-021-024-026-027-029-151800- MAINE CITY SKY/WX TMP DP RH WIND PRES REMARKS PORTLAND CLOUDY 29 2 31 SW3 30.57F SANFORD FAIR 28 3 34 VRB5 30.55F BAR HARBOR FAIR 27 7 42 N7 30.54F WISCASSET FAIR 28 6 39 CALM 30.56F ROCKLAND FAIR 28 5 37 VRB3 30.54F FRYEBURG FAIR 24 6 46 CALM 30.53F LEWISTONAUBURN FAIR 26 4 38 CALM 30.54F AUGUSTA FAIR 26 4 38 CALM 30.53F WATERVILLE FAIR 25 7 46 MISG 30.50F BANGOR PTSUNNY 27 3 35 NW6 30.54F GREENVILLE N/A 18 5 57 NW9 30.43F MILLINOCKET FAIR 22 7 52 W7 30.54S HOULTON FAIR 21 8 57 VRB7 30.47S PRESQUE ISLE FAIR 24 8 50 W10 30.46F WCI 14 FRENCHVILLE FAIR 22 4 46 NW13 30.40F WCI 10 CARIBOU FAIR 23 5 46 NW7 30.44S $$ NHZ002-005-008-009-011-012-014-151800- NEW HAMPSHIRE CITY SKY/WX TMP DP RH WIND PRES REMARKS PORTSMOUTH CLOUDY 28 6 40 CALM 30.56F ROCHESTER FAIR 28 6 39 S5 30.53F NASHUA FAIR 28 7 41 VRB3 30.56F MANCHESTER CLOUDY 26 4 38 CALM 30.54F CONCORD FAIR 25 6 44 CALM 30.55F LACONIA FAIR 25 7 46 W3 30.52F PLYMOUTH FAIR 24 6 46 CALM 30.53F BERLIN FAIR 18 6 59 CALM 30.45F WHITEFIELD FAIR 18 8 65 CALM 30.46F JAFFREY FAIR 26 3 37 CALM 30.47F KEENE FAIR 25 9 50 CALM 30.52F LEBANON FAIR 23 8 52 N3 30.52F MT WASHINGTON NOT AVBL $$ VTZ005-007-008-151800- VERMONT CITY SKY/WX TMP DP RH WIND PRES REMARKS ST JOHNSBURY N/A 17 9 70 MISG 30.50F MONTPELIER FAIR 16 9 74 NE3 30.50F BURLINGTON PTSUNNY 23 11 60 SW8 30.51F $$ MAZ007-012-024-CTZ003-RIZ002-NYZ038-NYZ072-151800- SOUTHERN NEW ENGLAND AND NY CITY SKY/WX TMP DP RH WIND PRES REMARKS BOSTON CLOUDY 31 7 36 N3 30.57F WORCESTER FAIR 25 4 40 NE5 30.49F NANTUCKET PTSUNNY 38 21 50 E10 30.51F PROVIDENCE CLOUDY 29 9 43 N6 30.54F HARTFORD CLOUDY 28 9 44 N5 30.53F ALBANY CLOUDY 27 10 49 NE3 30.51F NEW YORK CITY CLOUDY 36 21 54 NE15 30.46F $$ ANZ081-ANZ082-ANZ150-NHZ014-MEZ023>029-151800- COASTAL MARINE OBSERVATIONS STATION/POSITION TIME TEMP WIND PRES WAVE AIR SEA DIR/SP/G HT/PER (UTC) (F) (DEG/KT/KT) (MB) (FT/S) MOUNT DESERT ROC 1700 29 330/ 7/ 10 1034.0F MATINICUS ROCK 1600 27 340/ 10/ 12 1034.4F ISLE OF SHOALS 1600 26 230/ 1/ 2 1035.7F CASHES LEDGE BUO 1650 31 50 1034.8F 3/ 4 $$ .............KEY.............. WCI - WIND CHILL TC - TEMPERATURE IN CELSIUS VSB - VISIBILITY IN MILES HX - HEAT INDEX FAIR- INDICATES FEW OR NO CLOUDS BELOW 12,000 FT, WITH NO SIGNIFICANT WEATHER AND/OR OBSTRUCTIONS TO VISIBILITY.

USA.gov is the U.S. government's official web portal to all federal, state and local government web resources and services.